FW2486 Weather Reports


Display with metric or nautical units.
time (UTC)temp
F
wind
direction
speed
MPH
gust
MPH
rain 1hr
in
rain 24hr
in
rain mn
in
humidity
%
barometer
mb
20260508161535 56 262 9.0 20.0 0.00 2.39 2.39 52 1022.0
20260508160035 57 255 9.0 21.0 0.00 2.39 2.39 52 1022.0
20260508154532 57 237 8.0 16.0 0.00 2.39 2.39 53 1022.0
20260508153035 57 231 7.0 18.0 0.00 2.39 2.39 56 1021.9
20260508150029 57 218 6.0 13.0 0.00 2.39 2.39 59 1021.5
20260508143033 56 197 3.0 11.0 0.00 2.39 2.39 56 1021.0
20260508141531 56 171 2.0 20.0 0.00 2.39 2.39 56 1021.0
20260508140151 56 183 4.0 11.0 0.00 2.39 2.39 56 1020.8
20260508134536 56 168 5.0 55.0 0.00 2.39 2.39 56 1020.6
20260508133036 56 181 5.0 14.0 0.00 2.39 2.39 57 1020.5
20260508131535 56 181 4.0 8.0 0.00 2.39 2.39 59 1020.4
20260508124532 55 153 5.0 11.0 0.00 2.39 2.39 65 1020.2
20260508121642 47 128 5.0 26.0 0.00 2.39 2.39 77 1019.9
20260508120142 45 157 2.0 17.0 0.00 2.39 2.39 76 1019.8
20260508114532 45 173 4.0 70.0 0.00 2.39 2.39 74 1019.7
20260508113035 45 166 6.0 110.0 0.00 2.39 2.39 74 1019.6
20260508111537 45 154 11.0 159.0 2.39 2.39 2.39 72 1019.5
20260508110032 46 245 21.0 175.0 2.39 2.39 2.39 71 1019.4
20260508104532 44 201 6.0 109.0 2.39 2.39 2.39 72 1019.5
20260508103035 44 230 7.0 56.0 2.39 2.39 0.00 72 1019.5
20260508101534 44 195 1.0 74.0 0.00 0.00 0.00 69 1019.6
20260508094533 47 228 9.0 99.0 0.00 0.00 0.00 61 1019.6
20260508093032 48 170 4.0 10.0 0.00 0.00 0.00 61 1019.5
20260508091535 48 145 5.0 11.0 0.00 0.00 0.00 60 1019.5
20260508084533 48 145 5.0 8.0 0.00 0.00 0.00 61 1019.5
20260508083142 47 149 4.0 9.0 0.00 0.00 0.00 62 1019.5
20260508081529 47 140 5.0 18.0 0.00 0.00 0.00 62 1019.5
20260508080035 49 166 2.0 4.0 0.00 0.00 0.00 59 1019.5
20260508073107 51 143 9.0 68.0 0.00 0.00 0.00 56 1019.5
20260508071536 51 142 6.0 29.0 0.00 0.00 0.00 54 1019.5
20260508070036 53 158 4.0 20.0 0.00 0.00 0.00 52 1019.6
20260508064644 54 147 5.0 10.0 0.00 0.00 0.00 50 1019.6
20260508063035 55 139 5.0 9.0 0.00 0.00 0.00 48 1019.7
20260508061532 55 132 5.0 7.0 0.00 0.00 0.00 47 1019.7
20260508060034 56 136 5.0 14.0 0.00 0.00 0.00 45 1019.8
20260508054536 57 141 4.0 8.0 0.00 0.00 0.00 43 1019.8
20260508053034 57 142 5.0 9.0 0.00 0.00 0.00 42 1019.8
20260508050146 58 146 6.0 10.0 0.00 0.00 0.00 40 1019.8
20260508044534 58 150 4.0 8.0 0.00 0.00 0.00 41 1019.7
20260508043029 58 157 4.0 11.0 0.00 0.00 0.00 40 1019.6
20260508041534 58 156 4.0 8.0 0.00 0.00 0.00 38 1019.5
20260508040033 59 171 4.0 8.0 0.00 0.00 0.00 36 1019.3
20260508034534 59 143 6.0 17.0 0.00 0.00 0.00 33 1019.1
20260508033030 60 152 5.0 10.0 0.00 0.00 0.00 31 1018.9
20260508031532 62 160 4.0 12.0 0.00 0.00 0.00 27 1018.8
20260508030143 62 164 4.0 8.0 0.00 0.00 0.00 26 1018.9
20260508024534 65 162 3.0 10.0 0.00 0.00 0.00 26 1018.8
20260508023034 66 169 7.0 24.0 0.00 0.00 0.00 25 1018.7
20260508021608 68 210 3.0 12.0 0.00 0.00 0.00 25 1018.7
20260508020034 69 193 4.0 19.0 0.00 0.00 0.00 24 1018.6
20260508013031 71 189 5.0 17.0 0.00 0.00 0.00 24 1018.6
20260508011607 72 223 7.0 19.0 0.00 0.00 0.00 23 1018.7
20260508010036 72 215 9.0 21.0 0.00 0.00 0.00 22 1018.7
20260508004651 72 215 6.0 18.0 0.00 0.00 0.00 21 1018.6
20260508003033 73 225 4.0 17.0 0.00 0.00 0.00 21 1018.5
20260508000038 74 239 9.0 21.0 0.00 0.00 0.00 20 1018.5
20260507234542 74 211 6.0 15.0 0.00 0.00 0.00 21 1018.5
20260507234536 75 230 5.0 18.0 0.00 0.00 0.00 21 1018.5
20260507231533 74 218 5.0 21.0 0.00 0.00 0.00 22 1018.7
20260507230029 74 213 7.0 18.0 0.00 0.00 0.00 22 1018.8
20260507224536 74 204 6.0 16.0 0.00 0.00 0.00 23 1018.8
20260507223106 73 196 7.0 13.0 0.00 0.00 0.00 23 1019.0
20260507221537 73 195 6.0 14.0 0.00 0.00 0.00 23 1019.2
20260507220038 73 194 6.0 15.0 0.00 0.00 0.00 24 1019.3
20260507214534 74 196 6.0 16.0 0.00 0.00 0.00 24 1019.4
20260507213037 73 190 5.0 16.0 0.00 0.00 0.00 26 1019.5
20260507204536 72 204 7.0 13.0 0.00 0.00 0.00 26 1019.8
20260507203106 72 190 7.0 15.0 0.00 0.00 0.00 26 1019.9
20260507201537 71 209 6.0 12.0 0.00 0.00 0.00 27 1020.1
20260507194535 70 202 6.0 12.0 0.00 0.00 0.00 29 1020.3
20260507193037 69 200 7.0 15.0 0.00 0.00 0.00 29 1020.5
20260507191535 69 203 7.0 13.0 0.00 0.00 0.00 31 1020.6
20260507190035 68 203 4.0 14.0 0.00 0.00 0.00 33 1020.6
20260507183147 66 205 5.0 11.0 0.00 0.00 0.00 36 1020.9
20260507181642 66 192 5.0 11.0 0.00 0.00 0.00 38 1021.0
20260507180106 65 193 5.0 9.0 0.00 0.00 0.00 39 1021.1
20260507174642 64 205 6.0 13.0 0.00 0.00 0.00 41 1021.3
20260507173033 63 211 5.0 13.0 0.00 0.00 0.00 41 1021.4
20260507171539 62 215 5.0 14.0 0.00 0.00 0.00 44 1021.5
20260507170035 61 223 6.0 12.0 0.00 0.00 0.00 46 1021.5
20260507164536 60 215 5.0 11.0 0.00 0.00 0.00 48 1021.6
20260507163037 60 207 6.0 16.0 0.00 0.00 0.00 48 1021.7